Location: Sternwarte ZA, Rosenfeld-Brittheim
(48.2889°N, 8.6789°E)
Time: 10:09:22
(UTC+01:00)

N. Korean satellite - Visible Passes

Search period start: 19 January 2019 00:00
Search period end: 29 January 2019 00:00
Orbit: 458 x 509 km, 97.2° (Epoch: 19 January)

Date Brightness Start Highest point End Pass type
(mag) Time Alt. Az. Time Alt. Az. Time Alt. Az.
19 Jan 8.2 06:18:39 10° NNE 06:22:10 38° E 06:25:37 10° SSE visible
19 Jan 9.1 18:31:25 10° SSW 18:34:33 26° W 18:37:44 10° NW visible
20 Jan 9.4 05:54:29 10° NE 05:57:21 21° E 06:00:11 10° SE visible
20 Jan 7.3 07:27:29 10° N 07:30:53 33° WNW 07:34:13 10° SW visible
20 Jan 7.7 18:06:12 10° S 18:09:46 50° W 18:13:25 10° NNW visible
21 Jan 10.2 05:31:13 10° ENE 05:32:27 11° E 05:33:41 10° ESE visible
21 Jan 6.6 07:02:36 10° N 07:06:19 64° WNW 07:09:56 10° SSW visible
21 Jan 6.6 17:41:25 10° SSE 17:45:05 82° ENE 17:48:50 10° N visible
22 Jan 7.1 06:37:56 10° NNE 06:41:40 65° ESE 06:45:18 10° S visible
22 Jan 9.9 18:51:42 10° SW 18:54:08 17° W 18:56:36 10° NW visible
23 Jan 8.5 06:13:30 10° NNE 06:16:55 33° E 06:20:15 10° SSE visible
23 Jan 8.8 18:26:00 10° SSW 18:29:17 30° W 18:32:37 10° NNW visible
24 Jan 9.6 05:49:27 10° NE 05:52:04 18° E 05:54:39 10° SE visible
24 Jan 7.1 07:22:12 10° N 07:25:40 37° WNW 07:29:04 10° SW visible
24 Jan 7.4 18:00:53 10° S 18:04:31 58° W 18:08:13 10° NNW visible
25 Jan 6.5 06:57:22 10° N 07:01:05 73° WNW 07:04:42 10° SSW visible
25 Jan 10.4 19:13:17 10° W 19:13:46 10° W 19:14:14 10° W visible
26 Jan 7.3 06:32:44 10° NNE 06:36:23 56° E 06:39:58 10° S visible
26 Jan 9.7 18:46:09 10° SW 18:48:50 19° W 18:51:32 10° NW visible
27 Jan 8.8 06:08:21 10° NNE 06:11:37 29° E 06:14:49 10° SSE visible
27 Jan 8.6 18:20:35 10° SSW 18:24:00 34° W 18:27:27 10° NNW visible
28 Jan 9.8 05:44:25 10° NE 05:46:45 16° E 05:49:03 10° SE visible
28 Jan 7.0 07:16:55 10° N 07:20:25 42° WNW 07:23:51 10° SW visible
28 Jan 7.1 17:55:33 10° S 17:59:14 67° W 18:02:59 10° NNW visible
